Weather History for KJAN - June, 2013

Change the Weather History Date:

Wednesday, June 19, 2013

  Actual Average Record
Temperature  
Mean Temperature 79 °F 80 °F  
Max Temperature 86 °F 90 °F 104 °F (1902)
Min Temperature 71 °F 69 °F 57 °F (1899)
Degree Days  
Heating Degree Days 0 0  
Month to date heating degree days 0 0  
Since 1 June heating degree days 0 0  
Since 1 July heating degree days 2309 2391  
Cooling Degree Days 14 15  
Month to date cooling degree days 268 250  
Year to date cooling degree days 586 608  
Since 1 June cooling degree days 268 250  
Growing Degree Days 28 (Base 50)    
Moisture  
Dew Point 71 °F    
Average Humidity 77    
Maximum Humidity 93    
Minimum Humidity 61    
Precipitation  
Precipitation 0.01 in 0.14 in 1.65 in (1975)
Month to date precipitation 4.44 2.51  
Year to date precipitation 37.50 26.62  
Sea Level Pressure  
Sea Level Pressure 29.99 in    
Wind  
Wind Speed 3 mph (South)    
Max Wind Speed 14 mph    
Max Gust Speed 18 mph    
Visibility 10 miles    
Events Rain , Thunderstorm    
T = Trace of Precipitation, MM = Missing Value Source: NWS Daily Summary

Daily Weather History Graph

Daily Weather History Graph

Search for Another Location

Airport or City:

Trip Planner

Search our weather history database for the weather conditions in past years. The results will help you decide how hot, cold, wet, or windy it might be!

Date:

Astronomy

Jun. 19, 2013 Rise Set
Actual Time 5:53 AM CDT 8:09 PM CDT
Civil Twilight 5:25 AM CDT 8:38 PM CDT
Nautical Twilight 4:50 AM CDT 9:13 PM CDT
Astronomical Twilight 4:12 AM CDT 9:50 PM CDT
Moon 4:11 PM CDT (6/19) 2:27 AM CDT (6/19)
Length of Visible Light 15h 13m
Length of Day
14h 16m
Waxing Gibbous, 80% of the Moon is Illuminated
Jun 19
Waxing Gibbous
Jun 23
Full
Jun 29
Last Quarter
Jul 8
New
Jul 15
First Quarter

Hourly Weather History & Observations

Time (CDT) Temp. Heat Index Dew Point Humidity Pressure Visibility Wind Dir Wind Speed Gust Speed Precip Events Conditions
12:54 AM 72.0 °F - 70.0 °F 93% 29.96 in 10.0 mi Calm Calm - N/A   Clear
1:54 AM 71.1 °F - 70.0 °F 96% 29.94 in 10.0 mi Calm Calm - N/A   Clear
2:54 AM 72.0 °F - 70.0 °F 93% 29.93 in 10.0 mi South 3.5 mph - N/A   Clear
3:54 AM 72.0 °F - 70.0 °F 93% 29.95 in 10.0 mi Calm Calm - N/A   Clear
4:45 AM 71.6 °F - 69.8 °F 94% 29.97 in 10.0 mi Calm Calm - N/A   Overcast
4:54 AM 72.0 °F - 70.0 °F 93% 29.96 in 10.0 mi South 3.5 mph - N/A   Overcast
5:15 AM 71.6 °F - 69.8 °F 94% 29.97 in 10.0 mi Calm Calm - N/A   Mostly Cloudy
5:54 AM 72.0 °F - 70.0 °F 93% 29.97 in 10.0 mi Calm Calm - 0.01 in   Mostly Cloudy
6:54 AM 72.0 °F - 70.0 °F 93% 30.01 in 10.0 mi WNW 3.5 mph - N/A   Partly Cloudy
7:37 AM 73.4 °F - 71.6 °F 94% 30.03 in 10.0 mi Calm Calm - N/A   Mostly Cloudy
7:54 AM 73.9 °F - 71.1 °F 91% 30.02 in 10.0 mi Variable 3.5 mph - N/A   Overcast
8:54 AM 75.9 °F - 71.1 °F 85% 30.01 in 10.0 mi Calm Calm - N/A   Mostly Cloudy
9:29 AM 78.8 °F - 71.6 °F 78% 30.03 in 10.0 mi Calm Calm - N/A   Overcast
9:54 AM 78.1 °F - 72.0 °F 81% 30.02 in 10.0 mi Calm Calm - N/A   Overcast
10:49 AM 80.6 °F 84.6 °F 71.6 °F 74% 30.04 in 10.0 mi Calm Calm - N/A   Mostly Cloudy
10:54 AM 82.0 °F 86.3 °F 71.1 °F 69% 30.02 in 10.0 mi Calm Calm - N/A   Mostly Cloudy
11:46 AM 80.6 °F 83.9 °F 69.8 °F 70% 30.03 in 10.0 mi SSE 3.5 mph - N/A   Mostly Cloudy
11:54 AM 81.0 °F 84.9 °F 71.1 °F 72% 30.01 in 10.0 mi WSW 4.6 mph - N/A   Mostly Cloudy
12:54 PM 84.9 °F 90.1 °F 71.1 °F 63% 30.00 in 10.0 mi Variable 5.8 mph - N/A   Mostly Cloudy
1:54 PM 82.9 °F 88.0 °F 72.0 °F 69% 29.99 in 10.0 mi ESE 6.9 mph - 0.00 in Rain Light Rain
2:54 PM 82.9 °F 87.5 °F 71.1 °F 67% 29.98 in 10.0 mi South 6.9 mph - 0.00 in   Overcast
3:43 PM 80.6 °F 83.2 °F 68.0 °F 65% 30.00 in 10.0 mi South 12.7 mph - N/A Thunderstorm Thunderstorm
3:54 PM 82.9 °F 85.8 °F 68.0 °F 60% 29.98 in 10.0 mi South 12.7 mph - 0.00 in Rain , Thunderstorm Light Thunderstorms and Rain
4:14 PM 82.4 °F 86.3 °F 69.8 °F 66% 30.00 in 10.0 mi South 6.9 mph - 0.00 in   Mostly Cloudy
4:54 PM 81.0 °F 84.4 °F 70.0 °F 69% 29.99 in 10.0 mi NW 8.1 mph - 0.00 in   Scattered Clouds
5:54 PM 84.0 °F 88.4 °F 70.0 °F 63% 29.98 in 10.0 mi SSE 4.6 mph - 0.00 in   Partly Cloudy
6:54 PM 82.9 °F 87.5 °F 71.1 °F 67% 29.98 in 10.0 mi SSE 5.8 mph - N/A   Partly Cloudy
7:54 PM 79.0 °F - 72.0 °F 79% 29.98 in 10.0 mi SE 3.5 mph - N/A   Partly Cloudy
8:54 PM 75.9 °F - 72.0 °F 87% 30.00 in 10.0 mi SE 3.5 mph - N/A   Partly Cloudy
9:54 PM 75.0 °F - 71.1 °F 87% 30.01 in 10.0 mi Calm Calm - N/A   Partly Cloudy
10:54 PM 73.0 °F - 71.1 °F 93% 30.03 in 10.0 mi Calm Calm - N/A   Clear
11:54 PM 73.0 °F - 70.0 °F 90% 30.03 in 10.0 mi Calm Calm - N/A   Clear